Regional Weather Roundup
Issued by NWS

Home | Current Version | Previous Version | Graphics & Text | Print | Product List | Glossary On
Versions: 1 2 3 4 5 6 7 8 9 10 11 12 13 14 15 16 17 18 19 20 21 22 23 24 25 26 27 28 29 30 31 32 33 34 35 36 37 38 39 40 41 42 43 44 45 46 47 48 49 50
000
ASUS43 KIND 312009
RWRIN

WEATHER ROUNDUP FOR INDIANA
NATIONAL WEATHER SERVICE INDIANAPOLIS IN
400 PM EDT FRI OCT 31 2014

NOTE: "FAIR" INDICATES FEW OR NO CLOUDS BELOW 12,000 FEET WITH NO
SIGNIFICANT WEATHER AND/OR OBSTRUCTIONS TO VISIBILITY.

* - STATION DOES NOT REPORT WEATHER SUCH AS PRECIPITATION OR FOG.

+ - STATION NOT QUALITY CONTROLLED BY THE NATIONAL WEATHER SERVICE.
    USE DATA WITH CAUTION...ESPECIALLY DEWPOINT AND RELATIVE
    HUMIDITY OBSERVATIONS.

INZ001>003-010>013-019-020-312100-
NORTHWEST INDIANA

CITY           SKY/WX    TMP DP  RH WIND       PRES   REMARKS
GARY /AIRPORT/ LGT RAIN  41  34  75 NW45G67   30.13R
KNOX *+        CLOUDY    37  34  88 N20G29    30.04R
LA PORTE +     LGT RAIN  38  36  93 N20G28    30.07R
MICHIGAN CITY+ LGT RAIN  36  34  93 N29G45    30.09R
MONTICELLO +   LGT RAIN  35  34  96 NW17G28   30.02R WCI  25
RENSSELAER +   LGT RAIN  36  36 100 NW15G25   30.08R
VALPARAISO     RAIN      37  36  96 N20G39    30.07R FOG

$$

LMZ046-743>745-312100-
SOUTHERN LAKE MICHIGAN

STATION/POSITION TIME  TEMP WIND        PRES
                       AIR  DIR/SP/G
                 (UTC) (F)  (DEG/KT/KT) (MB)
MICHIGAN CITY    2000   40  350/ 46/ 55   N/A

$$

INZ004-005-014>016-021>024-312100-
NORTH CENTRAL INDIANA

CITY           SKY/WX    TMP DP  RH WIND       PRES   REMARKS
ELKHART        CLOUDY    37  32  81 N29       30.02R
GOSHEN         CLOUDY    38  34  85 N17G36    29.99R
LOGANSPORT +   LGT RAIN  37  36  93 N24G30    29.98R
PERU/GRISSOM   LGT RAIN  39  39 100 N23G33    29.95R
ROCHESTER +    CLOUDY    41  36  81 N22G28    29.99R
SOUTH BEND     FLURRIES  36  35  96 N25G37    30.06R
WARSAW +       LGT RAIN  37  34  87 N21G33    29.97R

$$

INZ006>009-017-018-025>027-312100-
NORTHEAST INDIANA

CITY           SKY/WX    TMP DP  RH WIND       PRES   REMARKS
ANGOLA *+        N/A     36  27  69 N14       29.96R
AUBURN +       CLOUDY    43  32  65 N8        29.92S
FORT WAYNE     CLOUDY    43  35  73 N13       29.92S
HUNTINGTON +   CLOUDY   N/A N/A N/A NW7       29.93R

$$

INZ028-029-035-036-043>045-051>053-312100-
WEST CENTRAL INDIANA

CITY           SKY/WX    TMP DP  RH WIND       PRES   REMARKS
GREENCASTLE +  CLOUDY    37  30  75 NW12G24   30.04S
LAFAYETTE      LGT SNOW  34  33  96 NW23G37   30.05R FOG     WCI  22
TERRE HAUTE    FLURRIES  39  32  76 NW15G29   30.11R

$$

INZ030>032-037>040-046>048-054>057-064-065-312100-
CENTRAL INDIANA

CITY           SKY/WX    TMP DP  RH WIND       PRES   REMARKS
ANDERSON       LGT RAIN  37  36  93 NW17G29   29.96S
CP ATTERBURY + CLOUDY    39  34  81 NW14G23   30.00F
COLUMBUS       CLOUDY    39  36  87 NW12      30.00R
FRANKFORT +    CLOUDY    36  34  91 W24G32    30.01S
GREENWOOD *+   CLOUDY    39  30  70 NW17G28   29.99F
INDIANAPOLIS   PTSUNNY   39  31  72 NW24G37   29.99S
-EAGLE CREEK   LGT RAIN  39  32  76 NW18G38   29.99S
KOKOMO *+      CLOUDY    37  34  87 NW21G26   29.95S
MARION +       CLOUDY    40  36  87 NW14      29.94S
MT COMFORT *+  CLOUDY    37  32  81 NW21G32   29.97S
SHELBYVILLE    CLOUDY    40  34  79 NW15G24   29.97S
ZIONSVILLE +   CLOUDY    37  32  81 NW18G24   29.98S

$$

INZ033-034-041-042-049-050-058-059-312100-
EAST CENTRAL INDIANA

CITY           SKY/WX    TMP DP  RH WIND       PRES   REMARKS
MUNCIE         CLOUDY    40  36  86 NW15      29.93S

$$

INZ060-061-067>069-081>083-085>088-312100-
SOUTHWEST INDIANA

CITY           SKY/WX    TMP DP  RH WIND       PRES   REMARKS
EVANSVILLE     CLOUDY    43  29  57 NW14G31   30.14R
HUNTINGBURG *+ PTSUNNY   43  28  56 N23G35    30.09S
WASHINGTON +   CLOUDY    41  34  74 NW22G28   30.08F

$$

INZ062-063-066-070>080-084-089>092-312100-
SOUTH CENTRAL AND SOUTHEAST INDIANA

CITY           SKY/WX    TMP DP  RH WIND       PRES   REMARKS
BLOOMINGTON    CLOUDY    40  31  70 NW15G23   30.04S
NORTH VERNON + DRIZZLE   39  36  87 NW17G30   29.99S
SEYMOUR +      CLOUDY    45  34  65 NW25G36   30.01S

$$




USA.gov is the U.S. government's official web portal to all federal, state and local government web resources and services.